EHI
0 0 0 1 0 0 0 1 1 1 1 4 10 15 19 23 25 27 29 30 31 31 28 24 25 29 32 33 33 33 31 29 27 25 22 20 19 18 18 18 17 15 13 12
0 0 0 1 0 0 0 1 1 1 2 5 10 15 20 24 26 26 27 29 31 32 29 27 28 32 34 34 35 36 33 28 25 23 21 19 18 18 19 21 21 19 17 15
0 0 0 1 1 1 1 1 1 1 4 7 11 16 21 25 26 24 24 27 30 29 29 29 30 32 35 36 37 38 35 28 24 23 20 19 18 19 21 22 22 21 19 18
0 0 0 1 2 2 2 1 1 3 8 12 16 19 22 26 27 24 23 25 27 27 28 28 28 29 32 35 36 37 35 31 27 24 22 22 23 23 23 23 22 21 20 19
0 0 0 1 1 1 2 1 1 5 12 17 19 22 25 28 30 28 26 26 26 27 28 27 25 28 34 37 37 35 33 30 28 26 25 26 28 27 26 26 25 24 23 22
0 0 0 0 0 0 0 0 1 5 11 15 19 23 27 31 32 32 30 28 27 27 28 28 27 31 38 41 39 34 30 28 27 27 28 30 31 31 31 29 28 27 26 25
0 0 0 0 0 0 2 4 6 8 11 14 19 24 28 29 30 31 29 27 25 25 27 28 30 34 37 38 36 32 28 26 25 27 29 30 31 33 33 31 28 26 24 23
0 0 1 2 3 3 7 12 15 16 17 19 23 26 27 27 27 27 25 23 21 22 25 26 28 31 31 30 29 28 26 24 23 24 26 28 31 32 31 29 26 24 22 20
2 3 4 6 7 9 13 19 22 22 24 25 25 24 25 25 24 23 21 18 16 17 19 21 23 25 24 21 21 22 22 21 20 20 22 25 27 26 25 26 25 23 22 21
5 5 7 10 12 14 18 21 23 24 26 25 23 21 22 22 20 18 17 14 12 12 13 15 18 19 16 14 15 17 18 18 19 20 21 22 21 19 19 22 23 22 20 20
4 5 9 12 15 18 20 20 21 23 24 23 21 19 19 18 16 14 13 12 10 9 9 11 14 14 13 12 12 14 15 17 19 20 19 19 19 17 16 16 17 16 16 16
4 6 10 13 16 18 20 20 21 22 22 20 18 16 15 13 12 11 10 9 8 8 8 9 11 13 13 13 13 14 15 17 18 17 17 18 18 16 13 10 8 8 9 10
6 8 11 14 15 17 19 20 20 21 21 19 14 11 9 8 7 6 7 7 7 7 7 7 9 11 12 12 13 14 15 17 18 17 16 17 17 15 12 9 5 3 3 4
7 9 11 14 15 15 14 15 16 17 17 15 11 7 5 5 4 3 4 5 6 6 6 6 7 8 9 10 12 13 15 17 19 19 17 16 16 16 13 10 7 4 2 2
7 8 9 11 12 11 9 9 10 11 10 9 7 3 2 2 2 2 3 3 3 3 3 3 4 5 5 7 10 13 14 16 18 18 16 15 15 15 13 10 7 5 4 4
6 7 7 9 9 8 6 6 7 7 5 3 2 1 0 1 1 1 1 1 1 1 1 1 2 3 2 4 7 10 11 12 13 14 14 14 13 12 10 7 5 5 5 5
5 5 6 8 8 7 5 4 5 5 2 0 0 0 0 0 0 0 0 1 1 1 1 1 1 1 0 1 3 5 6 7 7 9 10 9 9 7 5 4 4 4 4 4
3 3 4 6 7 5 4 3 3 2 0 0 0 0 0 0 1 1 1 2 1 0 0 0 0 0 0 0 1 1 3 3 3 4 4 4 3 3 2 2 2 2 2 1
1 1 3 4 5 4 3 2 1 0 0 0 0 0 0 0 1 2 2 2 1 0 0 0 0 0 0 0 0 0 1 1 1 1 1 0 0 0 1 1 1 1 1 0
0 1 2 3 4 3 2 1 0 0 0 0 0 0 0 0 1 1 1 1 1 0 0 0 0 0 0 0 0 0 0 0 0 0 0 0 0 0 0 0 0 0 0 0
0 1 2 3 3 2 1 0 0 0 1 0 0 0 0 0 0 0 0 0 1 1 0 0 0 0 0 0 0 0 0 0 0 0 0 0 0 0 0 0 0 0 0 0
0 1 3 3 2 1 0 0 0 1 1 0 0 0 0 0 0 0 0 0 0 0 0 0 0 0 0 0 0 0 0 0 0 0 0 0 0 0 0 0 0 0 0 0
2 3 3 2 1 0 0 0 0 1 1 1 0 0 0 0 0 0 0 0 0 0 0 0 0 0 0 0 0 0 0 0 0 0 0 0 0 0 0 0 0 0 0 0
5 5 3 1 0 0 0 0 0 1 2 2 1 1 0 0 0 0 0 0 0 0 0 0 0 0 0 1 1 0 0 0 0 0 0 0 0 0 0 0 0 0 0 0
5 4 2 1 0 0 0 0 0 0 1 2 2 1 0 0 0 0 0 0 0 0 0 0 0 0 0 1 1 0 0 0 1 1 0 0 0 0 0 0 0 0 0 0
2 1 1 0 0 0 0 0 0 0 0 1 1 0 0 0 0 0 0 0 0 0 0 0 0 0 0 1 1 1 1 1 2 2 1 0 0 0 0 0 0 0 0 0
0 0 0 0 0 0 0 0 0 0 0 0 0 0 0 0 0 0 0 0 0 0 0 0 0 0 0 1 2 2 2 2 3 3 2 1 0 0 0 0 0 0 0 0
Wind_Speed
9 7 7 10 11 12 14 13 13 9 8 6 4 4 3 3 3 3 4 5 5 5 5 5 6 6 7 7 7 7 7 7 7 7 6 6 5 5 5 5 5 5 5 4
9 8 8 9 11 12 13 13 13 11 8 3 2 3 3 3 3 3 3 4 4 5 5 5 5 5 6 6 6 7 7 7 6 6 6 6 6 5 5 5 5 5 5 5
9 8 10 12 10 11 11 11 11 10 6 2 3 3 3 3 3 3 3 3 4 4 4 4 4 5 6 6 6 7 6 6 5 5 5 5 5 5 5 5 5 5 5 5
8 8 14 5 3 6 9 9 8 7 3 3 3 2 2 2 3 3 3 3 3 3 3 4 4 5 5 5 6 6 6 5 5 6 6 5 5 5 4 4 4 4 4 5
8 11 10 6 4 6 9 8 5 5 3 2 2 3 3 2 1 2 2 2 1 2 2 3 4 4 5 5 5 6 5 5 5 5 5 5 5 4 4 3 3 4 4 4
9 11 10 3 1 3 7 9 3 4 4 4 4 5 2 2 2 2 3 2 2 2 3 3 3 4 4 5 4 4 4 4 4 4 4 4 4 4 3 4 4 4 3 3
11 10 5 2 1 4 8 2 2 3 4 4 4 2 2 3 3 3 4 4 4 3 3 3 3 4 4 4 3 3 3 3 3 3 3 3 3 2 3 3 3 3 3 3
9 10 5 4 0 2 3 4 2 2 1 2 2 4 4 4 4 4 4 5 4 4 4 3 3 4 4 3 2 2 3 3 3 3 2 2 2 2 3 3 3 4 3 3
3 1 4 2 3 4 3 2 2 1 0 2 4 4 5 4 4 5 5 4 4 4 4 4 3 3 3 2 2 2 3 3 2 2 1 1 2 2 3 3 3 2 2 2
2 1 1 2 2 2 2 2 2 1 1 3 4 5 5 5 5 5 4 4 4 4 4 4 3 3 3 2 1 2 3 2 2 2 2 2 2 2 1 1 2 2 2 3
4 1 1 0 2 2 2 1 1 2 3 4 5 6 5 5 5 4 4 4 3 3 4 4 3 3 3 2 1 0 2 2 2 2 2 2 2 0 1 1 1 2 2 3
2 0 1 0 1 2 1 2 2 2 4 4 5 6 6 5 5 4 4 4 4 4 4 4 4 4 3 3 2 1 1 1 1 1 1 2 2 1 2 1 2 1 2 4
2 1 2 1 1 1 1 2 2 3 4 5 5 6 6 6 5 4 4 4 4 4 4 4 4 3 3 2 1 1 1 1 1 0 0 0 0 1 1 2 2 2 3 2
1 0 0 0 0 1 2 3 3 4 5 5 5 6 6 6 6 5 4 4 4 4 3 3 3 3 3 2 1 1 1 0 1 1 1 1 1 1 1 1 1 1 1 2
2 1 1 1 1 2 2 3 4 4 5 6 5 5 5 5 5 5 4 3 3 3 3 3 3 3 2 2 1 1 2 2 2 1 1 1 1 1 1 1 2 2 2 1
1 2 3 3 3 3 4 4 4 4 5 5 5 4 5 5 4 4 4 3 3 3 3 3 3 3 3 2 2 1 2 3 1 1 1 1 1 1 1 1 1 2 2 2
3 3 3 4 4 4 4 4 4 5 5 5 5 5 5 5 4 4 4 4 4 3 3 3 3 3 2 2 2 2 2 2 1 1 1 2 2 2 2 2 2 2 3 3
3 2 2 2 3 4 5 5 5 5 5 5 5 4 4 4 4 3 3 3 4 4 3 3 3 2 2 2 2 1 1 1 2 2 2 3 3 3 3 3 3 4 3 2
1 2 3 3 4 4 4 5 5 5 5 5 5 4 4 4 4 4 3 2 2 3 3 3 2 2 2 3 3 1 1 2 2 2 2 2 2 2 3 3 3 4 4 4
4 4 4 5 5 5 5 5 5 5 5 5 5 5 5 4 4 3 3 2 2 3 2 2 2 2 2 2 3 1 2 2 2 2 2 2 3 3 3 3 3 3 3 4
5 5 6 6 6 6 5 5 5 5 5 5 5 5 5 4 4 3 2 2 3 3 2 1 1 2 2 3 2 2 2 2 2 2 2 3 3 3 3 3 4 4 4 4
5 5 6 6 6 5 4 4 4 5 5 4 4 4 4 4 4 3 2 2 2 2 1 1 2 4 4 4 2 2 3 3 2 2 2 2 3 3 4 4 4 4 4 4
5 5 5 5 5 5 5 4 4 5 5 4 4 4 3 2 2 1 2 2 2 2 1 2 4 4 3 2 2 2 3 3 3 3 3 3 3 3 3 4 4 4 4 4
4 4 5 5 5 5 5 4 4 4 5 4 4 3 2 2 2 2 3 4 3 2 2 4 4 2 3 1 1 2 2 2 2 3 3 3 3 3 4 4 4 4 4 5
4 4 5 5 4 4 5 5 5 5 4 4 4 3 2 2 2 2 3 4 3 1 2 4 3 0 1 2 2 3 3 4 4 4 4 4 4 3 3 3 4 4 4 4
4 3 4 3 3 3 3 3 3 3 3 3 3 2 2 2 2 2 2 3 3 1 1 2 2 1 1 2 2 3 3 2 2 2 4 4 4 4 4 4 5 4 4 4
4 4 3 3 3 3 3 3 3 3 3 2 2 2 2 2 2 2 2 1 1 1 1 1 1 1 1 2 2 2 2 2 2 3 3 3 4 4 4 4 4 4 4 5
Wind_Direction
254 254 236 234 228 225 235 248 257 256 256 258 245 228 209 188 174 159 162 166 171 177 172 176 178 180 182 184 181 180 184 191 192 195 198 204 207 213 214 216 219 219 225 230
236 232 230 235 231 230 236 243 249 254 258 284 265 220 202 188 181 178 175 178 179 180 179 182 179 180 178 179 179 178 185 192 190 195 200 205 208 212 211 215 223 221 229 231
230 224 232 231 230 232 236 242 250 254 264 242 233 232 218 203 201 198 196 194 190 186 182 179 178 178 177 175 175 177 182 187 187 198 206 211 211 208 210 214 220 225 229 230
234 222 235 226 225 242 243 244 252 261 260 247 239 224 210 205 202 197 187 185 183 184 180 176 174 175 178 174 170 172 177 182 184 193 199 200 203 204 203 204 210 219 227 234
234 230 230 220 233 245 244 243 250 254 237 218 207 195 196 171 156 154 159 162 162 172 161 157 167 168 169 170 169 174 180 187 191 194 198 196 201 202 201 198 209 218 224 230
235 243 240 228 254 270 246 233 235 252 230 215 224 233 188 123 124 115 109 109 114 115 117 125 150 157 162 163 166 174 180 188 191 192 199 201 202 204 199 195 204 218 222 229
234 240 240 43 3 225 231 251 337 263 232 221 236 289 115 126 114 106 101 95 90 94 95 96 113 134 145 143 146 152 155 154 160 167 181 186 186 197 209 208 202 217 225 226
232 235 222 56 206 270 357 1 341 322 236 209 133 112 121 117 110 106 104 97 93 90 89 90 101 120 129 129 126 129 136 142 149 160 172 157 168 184 211 222 208 210 217 234
270 297 40 36 4 1 352 348 344 333 334 151 135 132 124 113 105 97 94 93 95 98 96 92 88 95 103 96 100 120 132 140 151 161 157 160 184 190 204 213 232 226 225 232
232 193 26 15 13 3 0 348 342 329 138 136 134 131 125 118 110 100 90 90 97 104 98 88 83 82 79 61 83 137 144 155 173 175 174 168 209 202 225 236 247 253 263 267
226 230 217 23 11 9 26 40 56 98 115 128 130 128 124 117 109 102 95 91 95 103 100 91 84 78 70 55 40 136 172 186 197 191 178 192 186 138 245 7 352 291 282 281
273 220 271 14 22 5 44 77 99 116 115 118 121 121 119 111 103 102 97 95 96 94 92 90 83 75 60 51 37 321 232 222 221 215 188 201 179 156 91 110 107 164 299 305
319 344 353 26 34 9 84 92 89 104 110 110 109 114 115 108 99 93 92 94 90 82 80 81 79 75 59 45 39 335 307 297 278 295 274 264 225 238 220 168 173 196 220 243
345 44 60 76 91 95 96 97 98 102 103 104 106 110 110 107 101 94 89 88 94 89 80 78 75 62 45 42 22 311 297 70 330 33 25 4 326 301 297 305 281 282 171 156
224 224 200 156 135 131 133 132 128 120 113 110 111 113 114 109 103 96 90 84 88 88 79 73 68 55 34 42 43 19 14 30 24 20 9 360 335 317 324 334 330 340 0 68
210 166 167 166 161 159 155 148 136 125 121 116 113 116 117 111 101 93 89 84 86 73 65 55 48 42 36 36 36 36 59 70 9 342 11 25 21 359 355 349 330 332 341 353
205 193 183 177 170 164 156 146 136 130 126 121 117 118 119 115 105 92 83 73 70 70 59 52 40 30 27 29 25 27 35 81 134 345 23 17 15 6 2 350 342 335 335 10
237 228 206 173 154 150 142 133 132 128 122 115 118 124 124 116 104 91 82 81 77 69 55 43 31 17 29 33 20 2 28 45 35 26 24 19 6 4 4 1 354 349 343 351
143 136 134 130 128 127 126 124 124 122 122 123 124 119 111 106 102 98 92 88 85 84 60 44 19 351 26 30 351 346 10 28 37 31 20 31 353 11 10 3 354 347 341 338
120 119 120 119 117 117 119 125 127 126 126 125 124 121 117 114 113 106 93 71 45 43 57 34 9 18 13 28 329 334 12 17 23 28 17 7 4 0 356 350 344 338 336 332
125 120 120 119 117 115 120 126 127 125 123 124 127 126 123 120 117 117 122 97 74 47 53 79 32 23 14 7 307 337 10 13 8 8 9 9 5 2 0 357 352 349 345 339
129 127 123 121 118 114 113 120 124 123 121 121 124 124 121 121 121 118 93 61 84 57 355 47 51 44 13 337 348 16 18 16 14 10 12 12 4 1 1 355 350 349 347 343
122 121 121 119 118 115 114 115 118 118 118 119 119 119 119 105 98 103 97 74 74 73 20 44 49 42 343 308 356 18 19 14 9 5 7 6 358 354 355 352 345 344 343 341
112 112 113 113 117 120 117 114 113 112 113 116 115 111 112 116 100 78 80 90 73 75 67 70 65 13 286 305 18 24 16 3 355 356 3 1 354 351 354 350 342 341 341 340
115 114 116 123 128 125 124 125 121 118 120 115 113 110 103 76 73 71 78 87 90 104 98 101 115 352 318 16 29 24 16 18 11 1 5 358 349 351 354 349 342 335 336 337
119 122 117 123 116 126 130 128 124 122 120 115 107 98 90 89 93 101 111 109 105 91 48 90 111 161 19 27 29 10 0 24 19 6 6 356 351 351 353 349 339 333 333 335
119 114 116 116 117 115 113 116 113 110 103 101 100 90 76 82 100 101 100 101 108 117 88 82 87 41 14 20 26 14 7 10 7 359 356 353 349 345 343 339 333 330 328 330